This is the latest recevied weather packets stored in our database for station/object AB1AU. If no packets are shown the sender has not sent any weather packets the latest 10 day(s).
| Time | Temp. | Humidity | Pressure | Rain* | Wind** | Luminosity | Snow |
|---|---|---|---|---|---|---|---|
| 1787833390 | 18.89° C | 89% | 1019.2 hPa | 0 mm | - | 68 W/m² | - |
| 1787833086 | 18.89° C | 90% | 1019 hPa | 0 mm | - | 71 W/m² | - |
| 1787832781 | 18.33° C | 90% | 1019.2 hPa | 0 mm | - | 66 W/m² | - |
| 1787832476 | 18.33° C | 91% | 1019.1 hPa | 0 mm | - | 49 W/m² | - |
| 1787832175 | 18.33° C | 91% | 1019.3 hPa | 0 mm | - | 38 W/m² | - |
| 1787831873 | 18.33° C | 91% | 1019.2 hPa | 0 mm | - | 54 W/m² | - |
| 1787831569 | 17.78° C | 91% | 1019.1 hPa | 0 mm | - | 48 W/m² | - |
| 1787831267 | 17.78° C | 91% | 1019.2 hPa | 0 mm | - | 59 W/m² | - |
| 1787830964 | 17.78° C | 92% | 1019.2 hPa | 0 mm | - | 48 W/m² | - |
| 1787830664 | 17.78° C | 92% | 1019.3 hPa | 0 mm | - | 41 W/m² | - |
| 1787830363 | 17.78° C | 92% | 1019.2 hPa | 0 mm | - | 28 W/m² | - |
| 1787830063 | 17.78° C | 92% | 1019.1 hPa | 0 mm | - | 31 W/m² | - |
| 1787829762 | 17.22° C | 93% | 1019 hPa | 0 mm | - | 34 W/m² | - |
| 1787829457 | 17.22° C | 93% | 1019.3 hPa | 0 mm | - | 45 W/m² | - |
| 1787829154 | 16.67° C | 93% | 1019.3 hPa | 0 mm | - | 32 W/m² | - |
| 1787828849 | 16.67° C | 93% | 1019.1 hPa | 0 mm | - | 28 W/m² | - |
| 1787828546 | 16.11° C | 93% | 1019.2 hPa | 0 mm | - | 25 W/m² | - |
| 1787828245 | 16.11° C | 93% | 1019.2 hPa | 0 mm | - | 23 W/m² | - |
| 1787827944 | 16.11° C | 93% | 1019 hPa | 0 mm | - | 24 W/m² | - |
| 1787827639 | 15.56° C | 93% | 1019.1 hPa | 0 mm | - | 19 W/m² | - |
| 1787827339 | 15.56° C | 93% | 1019.1 hPa | 0 mm | - | 18 W/m² | - |
| 1787827038 | 15.56° C | 93% | 1019.1 hPa | 0 mm | - | 19 W/m² | - |
| 1787826738 | 15.56° C | 93% | 1019.1 hPa | 0 mm | - | 18 W/m² | - |
| 1787826434 | 15° C | 93% | 1018.9 hPa | 0 mm | - | 12 W/m² | - |
| 1787826130 | 15° C | 93% | 1018.9 hPa | 0 mm | - | 7 W/m² | - |
* Rain latest hour (hover to see other rain measurements)
** Current wind speed in m/s (hover to see current wind gust speed)